[[{"header":{"parameterUnit":"m.s-1","parameterCategory":1,"la1":30.2991,"la2":30.254,"lo1":-89.0895,"lo2":-89.0444,"dy":0.0017,"dx":0.0017,"nx":28,"ny":28,"refTime":"2024-06-09T21:00:00:Z","depth":0,"parameterNumber":2,"parameterNumberName":"U-component_of_WINDS"},"data":[0,0,0,0,0,0,0,0,0,0,0,0,0,0,0,0,0,0,0,0,0,0,0,0,0,0,0,0,0,0,0,0,0,0,0,0,0,0,0,0,0,0,0,0,0,0,0,0,0,0,0,0,0,0,0,0,0,0,-2.3994,-2.3994,0,-2.3973,-2.3973,-2.3972,-2.3845,-2.3841,-2.3838,-2.3835,-2.3817,-2.3819,-2.3822,0,0,0,0,0,0,0,0,0,0,0,0,0,-2.3927,-2.3929,-2.3994,-2.3994,-2.3994,-2.3973,-2.3973,-2.3972,-2.3845,-2.3841,-2.3838,-2.3834,-2.3816,-2.3819,-2.3822,0,0,0,0,0,0,0,0,0,0,0,0,0,-2.3936,-2.393,-2.3994,-2.3928,-2.3921,-2.3973,-2.3973,-2.3972,-2.3846,-2.3841,-2.3837,-2.3832,-2.3815,-2.3819,-2.3822,-2.3937,0,0,-2.3833,-2.3835,0,0,0,0,0,0,0,0,-2.3936,-2.3939,-2.3938,-2.3932,-2.3925,-2.3906,-2.3942,-2.3961,-2.3847,-2.3875,-2.3835,-2.383,-2.3851,-2.3851,-2.3857,-2.3936,-2.3935,-2.3834,-2.3836,-2.3837,-2.3838,0,0,0,0,0,0,0,-2.3935,-2.3939,-2.3986,-2.3938,-2.393,-2.3899,-2.3896,-2.3945,-2.3889,-2.3872,-2.3863,-2.3862,-2.3847,-2.3854,-2.3856,-2.3935,-2.3833,-2.3837,-2.3839,-2.384,-2.4107,-2.4112,0,0,0,0,0,0,-2.3944,-2.3939,-2.3986,-2.3985,-2.3919,-2.3905,-2.39,-2.3917,-2.3888,-2.3879,-2.3866,-2.3856,-2.385,-2.3852,-2.3855,-2.3988,-2.3837,-2.3841,-2.3843,-2.4103,-2.4109,-2.4114,0,0,0,0,0,0,-2.3943,-2.3949,-2.3987,-2.396,-2.3962,-2.3911,-2.3931,-2.3919,-2.3927,-2.3883,-2.3873,-2.3884,-2.3847,-2.385,-2.3917,-2.3986,-2.3842,-2.3845,-2.4097,-2.4104,-2.4111,-2.4256,0,0,0,0,0,0,-2.3941,-2.395,-2.3992,-2.3962,-2.3964,-2.405,-2.3935,-2.3922,-2.3933,-2.392,-2.3898,-2.3889,-2.3843,-2.3913,-2.3921,-2.3988,-2.3848,-2.409,-2.41,-2.4109,-2.4245,-2.4267,-2.4287,0,0,0,0,0,-2.394,-2.4035,-2.3995,-2.4002,-2.4016,-2.4054,-2.4056,-2.4,-2.3939,-2.3982,-2.3954,-2.389,-2.3976,-2.3921,-2.3929,-2.3998,-2.4086,-2.4097,-2.4108,-2.4235,-2.4263,-2.4286,0,0,0,0,0,0,-2.4077,-2.403,-2.3985,-2.4073,-2.4069,-2.4033,-2.4085,-2.4031,-2.4044,-2.4032,-2.3963,-2.3959,-2.4037,-2.4024,-2.3963,-2.4108,-2.402,-2.4034,-2.4114,-2.414,-2.416,-2.4163,-2.3851,0,0,0,0,0,-2.4117,-2.4151,-2.4108,-2.4189,-2.4189,-2.4138,-2.4152,-2.4109,-2.4102,-2.41,-2.4077,-2.4074,-2.4099,-2.4118,-2.414,-2.4241,-2.4235,-2.4293,-2.4314,-2.4331,-2.4344,-2.4398,-2.4423,-2.4151,-2.415,-2.415,0,0,-2.4201,-2.4179,-2.4205,-2.4216,-2.4208,-2.4245,-2.4137,-2.4182,-2.4209,-2.4107,-2.417,-2.4153,-2.4144,-2.4229,-2.4265,-2.4221,-2.4418,-2.4345,-2.4359,-2.4363,-2.4412,-2.4438,-2.4461,-2.4158,-2.4157,-2.4155,0,0,-2.4374,-2.436,-2.4427,-2.442,-2.4407,-2.4372,-2.4388,-2.436,-2.4345,-2.4406,-2.433,-2.4362,-2.4408,-2.4406,-2.441,-2.458,-2.4523,-2.4589,-2.4699,-2.4752,-2.4774,-2.4792,-2.4855,-2.4878,-2.4602,-2.4602,-2.4602,0,-2.448,-2.4533,-2.4468,-2.4517,-2.4525,-2.4432,-2.45,-2.4497,-2.4493,-2.4501,-2.445,-2.4506,-2.4493,-2.4577,-2.4619,-2.4625,-2.4642,-2.4593,-2.4775,-2.4794,-2.481,-2.4869,-2.4892,-2.461,-2.4609,-2.4609,-2.4608,0,-2.4665,-2.4703,-2.4758,-2.4755,-2.4769,-2.4827,-2.4772,-2.4794,-2.4749,-2.472,-2.4784,-2.4765,-2.4781,-2.4797,-2.4755,-2.4875,-2.4848,-2.4787,-2.4698,-2.4846,-2.49,-2.4922,-2.4622,-2.4619,-2.4617,-2.4615,0,0,-2.4927,-2.4885,-2.4907,-2.4905,-2.4884,-2.4912,-2.4966,-2.498,-2.5001,-2.5001,-2.5045,-2.5086,-2.5029,-2.5035,-2.4991,-2.5037,-2.5174,-2.497,-2.4969,-2.5011,-2.5308,-2.5355,-2.5382,-2.5135,-2.5139,-2.5142,-2.5309,0,-2.5093,-2.5183,-2.5126,-2.5224,-2.5259,-2.517,-2.5217,-2.521,-2.5184,-2.521,-2.518,-2.5211,-2.5133,-2.5136,-2.5177,-2.5149,-2.5234,-2.5136,-2.5178,-2.518,-2.5185,-2.541,-2.5461,-2.562,-2.533,-2.5333,-2.5336,0,-2.5301,-2.5309,-2.5411,-2.5382,-2.5394,-2.5438,-2.5447,-2.5472,-2.5462,-2.5439,-2.5445,-2.5388,-2.544,-2.535,-2.5422,-2.5357,-2.537,-2.5358,-2.5363,-2.5367,-2.5269,-2.5423,-2.5669,-2.5694,-2.5368,-2.5365,-2.5363,0,-2.5484,-2.5519,-2.5585,-2.5585,-2.5553,-2.5586,-2.5574,-2.5559,-2.5571,-2.5579,-2.5587,-2.5601,-2.5609,-2.5622,-2.5572,-2.551,-2.565,-2.5556,-2.5635,-2.5636,-2.567,-2.567,-2.5925,-2.5675,-2.5675,-2.5674,-2.5674,0,-2.5678,-2.5745,-2.5667,-2.5708,-2.578,-2.5713,-2.5786,-2.5765,-2.5752,-2.5788,-2.5711,-2.5747,-2.5677,-2.5706,-2.5666,-2.5732,-2.5736,-2.5721,-2.571,-2.5729,-2.5731,-2.5739,-2.5728,-2.5681,-2.5679,-2.5678,-2.5677,0,-2.5896,-2.5846,-2.5912,-2.5875,-2.5868,-2.5923,-2.5891,-2.5928,-2.5895,-2.5942,-2.5949,-2.5898,-2.5928,-2.5878,-2.5902,-2.5875,-2.5968,-2.5939,-2.5971,-2.5964,-2.6046,-2.604,-2.6317,-2.6351,-2.6078,-2.6081,-2.6083,0,-2.6025,-2.6073,-2.6041,-2.6059,-2.6051,-2.6081,-2.6093,-2.6028,-2.6044,-2.6035,-2.6074,-2.6096,-2.6111,-2.6163,-2.6129,-2.6147,-2.612,-2.6215,-2.6122,-2.614,-2.6124,-2.6123,-2.6128,-2.6236,-2.6239,-2.6242,-2.6244,0,-2.6259,-2.6231,-2.625,-2.6261,-2.6277,-2.6283,-2.6283,-2.6302,-2.6234,-2.6255,-2.6284,-2.6295,-2.6319,-2.6343,-2.6353,-2.6341,-2.6283,-2.6273,-2.6292,-2.6314,-2.6332,-2.6325,-2.6026,-2.6268,-2.6265,-2.6264,-2.6262,-2.6261,-2.6437,-2.6477,-2.646,-2.6484,-2.6476,-2.6478,-2.6511,-2.6481,-2.6504,-2.6517,-2.6477,-2.6516,-2.6503,-2.651,-2.6505,-2.6534,-2.6492,-2.652,-2.6528,-2.6536,-2.655,-2.6325,-2.6536,-2.6535,-2.6534,-2.6533,-2.6533,0,-2.6669,-2.6653,-2.6676,-2.6678,-2.6697,-2.6636,-2.6633,-2.6654,-2.6688,-2.6681,-2.6696,-2.673,-2.6752,-2.672,-2.6737,-2.6767,-2.6741,-2.6774,-2.6773,-2.6772,-2.6586,-2.6568,-2.6795,-2.6795,-2.6795,-2.6795,-2.6795,-2.6795,-2.6792,-2.6856,-2.6826,-2.6886,-2.6869,-2.6905,-2.6909,-2.691,-2.6904,-2.6944,-2.6962,-2.694,-2.6923,-2.6938,-2.6956,-2.6946,-2.6957,-2.7001,-2.6982,-2.681,-2.6784,-2.676,-2.6743,-2.7003,-2.7004,-2.7165,-2.7166,-2.7168]},{"header":{"parameterUnit":"m.s-1","parameterCategory":1,"la1":30.2991,"la2":30.254,"lo1":-89.0895,"lo2":-89.0444,"dy":0.0017,"dx":0.0017,"nx":28,"ny":28,"refTime":"2024-06-09T21:00:00:Z","depth":0,"parameterNumber":3,"parameterNumberName":"V-component_of_WINDS"},"data":[0,0,0,0,0,0,0,0,0,0,0,0,0,0,0,0,0,0,0,0,0,0,0,0,0,0,0,0,0,0,0,0,0,0,0,0,0,0,0,0,0,0,0,0,0,0,0,0,0,0,0,0,0,0,0,0,0,0,-3.5034,-3.5035,0,-3.5095,-3.5096,-3.5096,-3.5077,-3.5076,-3.5074,-3.5073,-3.5131,-3.5134,-3.5137,0,0,0,0,0,0,0,0,0,0,0,0,0,-3.4896,-3.4898,-3.5034,-3.5035,-3.5035,-3.5095,-3.5096,-3.5096,-3.5077,-3.5076,-3.5074,-3.5073,-3.513,-3.5134,-3.5137,0,0,0,0,0,0,0,0,0,0,0,0,0,-3.4956,-3.4899,-3.5034,-3.5033,-3.5034,-3.5095,-3.5096,-3.5097,-3.5078,-3.5076,-3.5074,-3.5072,-3.5129,-3.5133,-3.5137,-3.5201,0,0,-3.515,-3.5152,0,0,0,0,0,0,0,0,-3.4953,-3.4961,-3.5032,-3.5033,-3.5034,-3.5077,-3.5068,-3.5132,-3.5078,-3.5061,-3.5073,-3.5071,-3.5114,-3.512,-3.5135,-3.5204,-3.5206,-3.515,-3.5153,-3.5155,-3.5156,0,0,0,0,0,0,0,-3.4949,-3.4958,-3.5058,-3.5033,-3.5034,-3.5028,-3.5035,-3.508,-3.5097,-3.5062,-3.5061,-3.5069,-3.5114,-3.5131,-3.5136,-3.5207,-3.515,-3.5154,-3.5156,-3.5158,-3.533,-3.5332,0,0,0,0,0,0,-3.4944,-3.4955,-3.5056,-3.506,-3.4988,-3.5032,-3.5039,-3.5065,-3.5097,-3.51,-3.507,-3.5068,-3.5125,-3.5131,-3.5138,-3.5214,-3.5154,-3.5158,-3.5161,-3.5328,-3.5331,-3.5333,0,0,0,0,0,0,-3.4942,-3.4954,-3.5053,-3.5007,-3.5019,-3.5037,-3.5065,-3.5067,-3.5084,-3.5103,-3.5106,-3.5085,-3.5124,-3.5132,-3.5186,-3.5216,-3.516,-3.5164,-3.5325,-3.5329,-3.5332,-3.5367,0,0,0,0,0,0,-3.4938,-3.4953,-3.4978,-3.5008,-3.5022,-3.5102,-3.5067,-3.507,-3.5091,-3.5089,-3.5117,-3.512,-3.5123,-3.518,-3.519,-3.522,-3.5167,-3.5323,-3.5327,-3.5331,-3.5363,-3.5371,-3.5378,0,0,0,0,0,-3.4933,-3.4985,-3.498,-3.4992,-3.5055,-3.5103,-3.5111,-3.5115,-3.5094,-3.5119,-3.5131,-3.5119,-3.5211,-3.5185,-3.5197,-3.5229,-3.5321,-3.5326,-3.533,-3.536,-3.5369,-3.5377,0,0,0,0,0,0,-3.4957,-3.4989,-3.4983,-3.5047,-3.5073,-3.51,-3.5132,-3.5125,-3.5156,-3.5151,-3.5153,-3.516,-3.5214,-3.5227,-3.5198,-3.5292,-3.5263,-3.527,-3.5281,-3.5291,-3.5298,-3.5293,-3.5171,0,0,0,0,0,-3.497,-3.5009,-3.5034,-3.5088,-3.5101,-3.5114,-3.5136,-3.5136,-3.5162,-3.5173,-3.5189,-3.5213,-3.5247,-3.527,-3.5303,-3.5365,-3.537,-3.5393,-3.54,-3.5406,-3.5412,-3.5444,-3.5454,-3.5348,-3.5348,-3.5348,0,0,-3.4997,-3.5019,-3.5043,-3.5093,-3.5113,-3.5151,-3.5123,-3.5165,-3.5193,-3.5178,-3.523,-3.5243,-3.527,-3.5328,-3.5354,-3.534,-3.5442,-3.5412,-3.5417,-3.5419,-3.545,-3.546,-3.5469,-3.5352,-3.5351,-3.5351,0,0,-3.5065,-3.5087,-3.5134,-3.5154,-3.5185,-3.5194,-3.5205,-3.5234,-3.5242,-3.5294,-3.5283,-3.5316,-3.5375,-3.5395,-3.5412,-3.5488,-3.5477,-3.5498,-3.5535,-3.5567,-3.5575,-3.5583,-3.5608,-3.5617,-3.5504,-3.5504,-3.5504,0,-3.5094,-3.5153,-3.5158,-3.5201,-3.5222,-3.5212,-3.5258,-3.5278,-3.5317,-3.5332,-3.5316,-3.539,-3.5407,-3.5469,-3.5488,-3.5503,-3.5514,-3.5494,-3.5574,-3.5582,-3.5588,-3.5613,-3.5622,-3.5506,-3.5506,-3.5506,-3.5506,0,-3.5186,-3.5227,-3.5261,-3.5301,-3.5326,-3.537,-3.538,-3.5405,-3.5403,-3.5413,-3.5465,-3.5486,-3.5522,-3.5537,-3.5536,-3.5598,-3.5589,-3.5574,-3.5544,-3.5601,-3.5623,-3.5633,-3.551,-3.5509,-3.5508,-3.5508,0,0,-3.5271,-3.5313,-3.5325,-3.5343,-3.5376,-3.5407,-3.545,-3.5487,-3.5508,-3.5535,-3.557,-3.5621,-3.5607,-3.5627,-3.5627,-3.5655,-3.5712,-3.5637,-3.5637,-3.5649,-3.5781,-3.5791,-3.5801,-3.5706,-3.5708,-3.5709,-3.5778,0,-3.5341,-3.5418,-3.5424,-3.5493,-3.5529,-3.5521,-3.5558,-3.5581,-3.5592,-3.5623,-3.5633,-3.5669,-3.5649,-3.566,-3.5688,-3.5699,-3.5738,-3.5695,-3.5736,-3.5738,-3.5728,-3.5814,-3.5825,-3.5888,-3.5787,-3.5788,-3.5789,0,-3.5432,-3.5464,-3.5537,-3.5565,-3.5581,-3.5614,-3.5648,-3.5679,-3.5705,-3.571,-3.5733,-3.5729,-3.5771,-3.5742,-3.5799,-3.5769,-3.5786,-3.5794,-3.5797,-3.58,-3.5766,-3.5817,-3.5909,-3.5918,-3.5804,-3.5803,-3.5802,0,-3.5485,-3.5546,-3.5597,-3.5613,-3.5647,-3.567,-3.5685,-3.571,-3.5731,-3.576,-3.5774,-3.5807,-3.5825,-3.585,-3.5854,-3.5833,-3.5911,-3.5882,-3.5915,-3.5915,-3.5931,-3.5929,-3.6025,-3.5945,-3.5944,-3.5944,-3.5944,0,-3.5561,-3.5606,-3.5621,-3.5653,-3.5702,-3.5707,-3.5755,-3.5768,-3.579,-3.5823,-3.5817,-3.5847,-3.5852,-3.5883,-3.5887,-3.5933,-3.5941,-3.5945,-3.5945,-3.5945,-3.5944,-3.5955,-3.595,-3.5947,-3.5946,-3.5946,-3.5945,0,-3.5628,-3.564,-3.5695,-3.5723,-3.5731,-3.5766,-3.5789,-3.5819,-3.5828,-3.5869,-3.5879,-3.5894,-3.593,-3.5937,-3.598,-3.5982,-3.6036,-3.6033,-3.6028,-3.6027,-3.6059,-3.6055,-3.6164,-3.6178,-3.6089,-3.609,-3.6091,0,-3.5675,-3.571,-3.5742,-3.5764,-3.578,-3.5816,-3.5838,-3.5845,-3.5868,-3.59,-3.5925,-3.596,-3.5989,-3.6047,-3.606,-3.6092,-3.6088,-3.6124,-3.6093,-3.6091,-3.6087,-3.6084,-3.6087,-3.6129,-3.613,-3.6131,-3.6132,0,-3.5757,-3.5762,-3.5795,-3.583,-3.5858,-3.5885,-3.5911,-3.5929,-3.5939,-3.5965,-3.6003,-3.6025,-3.6069,-3.6104,-3.6136,-3.6149,-3.6141,-3.6142,-3.6151,-3.615,-3.6145,-3.6146,-3.6043,-3.6139,-3.6138,-3.6138,-3.6137,-3.6137,-3.5815,-3.5844,-3.5872,-3.5908,-3.5929,-3.5954,-3.5983,-3.5996,-3.6028,-3.6065,-3.6067,-3.6107,-3.6131,-3.6174,-3.6189,-3.622,-3.6208,-3.6222,-3.6225,-3.6228,-3.623,-3.6142,-3.6226,-3.6226,-3.6225,-3.6225,-3.6225,0,-3.5895,-3.5913,-3.5947,-3.5984,-3.6013,-3.6005,-3.6034,-3.6058,-3.6094,-3.6118,-3.6147,-3.6189,-3.6223,-3.6239,-3.6272,-3.6293,-3.629,-3.6301,-3.6299,-3.6301,-3.6239,-3.6227,-3.6303,-3.6303,-3.6303,-3.6303,-3.6303,-3.6303,-3.594,-3.599,-3.5997,-3.6057,-3.6073,-3.6114,-3.6131,-3.6153,-3.6172,-3.622,-3.6248,-3.6259,-3.6279,-3.6314,-3.6344,-3.6347,-3.6359,-3.6371,-3.6373,-3.6314,-3.6306,-3.6298,-3.6287,-3.6374,-3.6374,-3.6433,-3.6433,-3.6434]}]]